Date String (YYYY-MM-DD hh:mm:ss) UTC,Instrument flags,Ambient pressure (hPa),Sample flow (lpm),Bypass flow (lpm),Sample temperature (°C),Ambient temperature (°C),ASC tube jacket temperature (°C),LED temperature (°C),Box temperature (°C),Sample RH (%),Span deviation,Mass concentration (μg/m³),Mass concentration (μg/m³),Mass concentration (μg/m³)
DateTimeUTC,F1_M11,P_M11,Q1_M11,Q2_M11,T1_M11,T2_M11,T3_M11,T4_M11,T5_M11,U1_M11,ZSPAN_M11,X0_M11,X2_M11,X1_M11
2022-10-23 08:00:00,,0805.7,5.00,0.00,30.1,28.6,00.0,39.0,32.0,07.8,0000.0,0006.52,0002.48,0001.68
2022-10-23 08:01:00,,0805.8,5.01,0.00,30.1,28.6,00.0,39.0,32.0,07.9,0000.0,0007.18,0002.50,0001.69
2022-10-23 08:02:00,,0805.9,4.99,0.00,30.2,28.7,00.0,39.0,32.0,07.9,0000.0,0007.44,0002.54,0001.70
2022-10-23 08:03:00,,0806.0,4.99,0.00,30.2,28.7,00.0,39.0,32.0,07.9,0000.0,0007.16,0002.56,0001.71
2022-10-23 08:04:00,,0805.9,5.00,0.00,30.2,28.6,00.0,39.0,32.0,07.9,0000.0,0007.02,0002.64,0001.71
2022-10-23 08:05:00,,0805.7,4.99,0.00,30.2,28.6,00.0,39.0,32.0,07.9,0000.0,0007.93,0002.61,0001.71
2022-10-23 08:06:00,,0805.7,5.02,0.00,30.2,28.6,00.0,39.0,32.0,07.9,0000.0,0008.40,0002.53,0001.71
2022-10-23 08:07:00,,0805.7,5.00,0.00,30.2,28.7,00.0,39.0,32.0,07.9,0000.0,0009.18,0002.57,0001.71
2022-10-23 08:08:00,,0805.6,4.99,0.00,30.2,28.7,00.0,39.0,32.0,07.9,0000.0,0009.47,0002.55,0001.70
2022-10-23 08:09:00,,0805.6,4.99,0.00,30.2,28.7,00.0,39.0,32.0,07.8,0000.0,0009.25,0002.47,0001.66
2022-10-23 08:10:00,,0805.6,5.00,0.00,30.2,28.6,00.0,39.0,32.0,07.8,0000.0,0009.25,0002.44,0001.64
2022-10-23 08:11:00,,0805.6,4.99,0.00,30.2,28.6,00.0,39.0,32.0,07.8,0000.0,0009.22,0002.42,0001.61
2022-10-23 08:12:00,,0805.6,5.02,0.00,30.2,28.6,00.0,39.0,32.0,07.8,0000.0,0008.68,0002.34,0001.59
2022-10-23 08:13:00,,0805.6,4.99,0.00,30.2,28.6,00.0,39.0,32.0,07.8,0000.0,0008.36,0002.27,0001.56
2022-10-23 08:14:00,,0805.6,5.00,0.00,30.2,28.6,00.0,39.0,32.0,07.8,0000.0,0008.27,0002.20,0001.53
2022-10-23 08:15:00,,0805.6,5.00,0.00,30.2,28.6,00.0,39.0,32.0,07.8,0000.0,0008.07,0002.13,0001.51
2022-10-23 08:16:00,,0805.4,5.02,0.00,30.2,28.6,00.0,39.0,31.9,07.9,0000.0,0007.40,0002.14,0001.50
2022-10-23 08:17:00,,0805.5,4.99,0.00,30.2,28.5,00.0,39.0,31.9,07.8,0000.0,0006.87,0002.15,0001.49
2022-10-23 08:18:00,,0805.4,4.99,0.00,30.2,28.5,00.0,39.0,31.9,07.7,0000.0,0006.76,0002.14,0001.48
2022-10-23 08:19:00,,0805.4,4.99,0.00,30.2,28.5,00.0,39.1,31.9,07.7,0000.0,0006.65,0002.17,0001.47
2022-10-23 08:20:00,,0805.4,5.02,0.00,30.2,28.5,00.0,39.1,31.9,07.7,0000.0,0006.08,0002.20,0001.48
2022-10-23 08:21:00,,0805.4,4.99,0.00,30.2,28.5,00.0,39.0,31.9,07.7,0000.0,0005.94,0002.15,0001.48
2022-10-23 08:22:00,,0805.5,4.99,0.00,30.1,28.5,00.0,39.0,31.8,07.7,0000.0,0006.29,0002.12,0001.47
2022-10-23 08:23:00,,0805.4,5.02,0.00,30.1,28.5,00.0,39.0,31.9,07.7,0000.0,0006.88,0002.14,0001.47
2022-10-23 08:24:00,,0805.4,4.99,0.00,30.1,28.5,00.0,39.0,31.9,07.7,0000.0,0006.96,0002.15,0001.47
2022-10-23 08:25:00,,0805.4,4.99,0.00,30.1,28.5,00.0,39.0,31.9,07.7,0000.0,0007.25,0002.16,0001.48
2022-10-23 08:26:00,,0805.4,5.01,0.00,30.1,28.5,00.0,39.0,32.0,07.7,0000.0,0007.51,0002.21,0001.49
2022-10-23 08:27:00,,0805.4,4.99,0.00,30.1,28.5,00.0,39.0,32.0,07.7,0000.0,0007.48,0002.20,0001.48
2022-10-23 08:28:00,,0805.4,5.01,0.00,30.1,28.5,00.0,39.0,32.0,07.7,0000.0,0007.19,0002.18,0001.46
2022-10-23 08:29:00,,0805.3,4.99,0.00,30.1,28.5,00.0,39.0,31.9,07.7,0000.0,0006.29,0002.14,0001.46
2022-10-23 08:30:00,,0805.3,4.99,0.00,30.1,28.4,00.0,39.0,31.9,07.7,0000.0,0007.65,0002.08,0001.45
2022-10-23 08:31:00,,0805.3,5.00,0.00,30.1,28.4,00.0,39.0,31.9,07.7,0000.0,0007.59,0002.04,0001.44
2022-10-23 08:32:00,,0805.3,5.01,0.00,30.1,28.4,00.0,39.0,31.9,07.7,0000.0,0007.56,0002.06,0001.44
2022-10-23 08:33:00,,0805.3,5.00,0.00,30.1,28.4,00.0,39.0,31.9,07.8,0000.0,0007.28,0002.07,0001.45
2022-10-23 08:34:00,,0805.4,5.01,0.00,30.1,28.4,00.0,39.0,31.8,07.8,0000.0,0006.88,0002.09,0001.45
2022-10-23 08:35:00,,0805.5,5.01,0.00,30.1,28.4,00.0,39.0,31.8,07.8,0000.0,0006.93,0002.10,0001.44
2022-10-23 08:36:00,,0805.4,4.99,0.00,30.1,28.4,00.0,39.0,31.8,07.9,0000.0,0006.87,0002.11,0001.44
2022-10-23 08:37:00,,0805.4,5.01,0.00,30.1,28.4,00.0,39.0,31.8,08.0,0000.0,0006.55,0002.07,0001.44
2022-10-23 08:38:00,,0805.4,5.00,0.00,30.0,28.3,00.0,39.0,31.8,07.9,0000.0,0006.34,0002.04,0001.45
2022-10-23 08:39:00,,0805.4,5.00,0.00,30.1,28.3,00.0,39.0,31.9,07.9,0000.0,0006.19,0002.04,0001.46
2022-10-23 08:40:00,,0805.5,4.99,0.00,30.0,28.4,00.0,39.0,31.8,07.9,0000.0,0006.99,0002.03,0001.46
2022-10-23 08:41:00,,0805.4,5.01,0.00,30.0,28.4,00.0,39.0,31.8,07.9,0000.0,0005.36,0002.09,0001.48
2022-10-23 08:42:00,,0805.4,5.00,0.00,30.0,28.4,00.0,39.0,31.9,07.8,0000.0,0005.52,0002.12,0001.49
2022-10-23 08:43:00,,0805.4,4.99,0.00,30.0,28.4,00.0,39.0,31.9,07.9,0000.0,0005.79,0002.16,0001.49
2022-10-23 08:44:00,,0805.3,4.99,0.00,30.0,28.4,00.0,39.0,31.8,08.0,0000.0,0006.19,0002.21,0001.46
2022-10-23 08:45:00,,0805.3,5.02,0.00,30.0,28.3,00.0,39.0,31.8,08.0,0000.0,0006.17,0002.23,0001.46
2022-10-23 08:46:00,,0805.3,4.99,0.00,30.0,28.3,00.0,39.0,31.8,08.0,0000.0,0006.05,0002.22,0001.46
2022-10-23 08:47:00,,0805.2,5.00,0.00,30.0,28.3,00.0,38.9,31.8,08.0,0000.0,0005.72,0002.16,0001.43
2022-10-23 08:48:00,,0805.3,5.01,0.00,30.0,28.3,00.0,38.9,31.8,08.0,0000.0,0005.55,0002.14,0001.41
2022-10-23 08:49:00,,0805.2,5.00,0.00,30.0,28.3,00.0,38.9,31.8,08.0,0000.0,0006.27,0002.15,0001.38
2022-10-23 08:50:00,,0805.2,4.99,0.00,30.0,28.3,00.0,38.9,31.7,07.9,0000.0,0007.14,0002.20,0001.37
2022-10-23 08:51:00,,0805.2,5.02,0.00,30.0,28.3,00.0,38.9,31.7,07.9,0000.0,0007.31,0002.23,0001.37
2022-10-23 08:52:00,,0805.2,4.99,0.00,30.0,28.3,00.0,38.9,31.7,07.9,0000.0,0007.00,0002.17,0001.35
2022-10-23 08:53:00,,0805.2,5.00,0.00,30.0,28.3,00.0,38.9,31.8,07.9,0000.0,0006.73,0002.11,0001.32
2022-10-23 08:54:00,,0805.2,5.01,0.00,30.0,28.3,00.0,38.9,31.8,07.9,0000.0,0006.52,0002.07,0001.30
2022-10-23 08:55:00,,0805.2,5.00,0.00,30.0,28.3,00.0,38.9,31.8,07.9,0000.0,0006.98,0002.02,0001.30
2022-10-23 08:56:00,,0805.2,4.99,0.00,30.0,28.3,00.0,38.9,31.8,08.0,0000.0,0007.42,0002.04,0001.29
2022-10-23 08:57:00,,0805.2,4.99,0.00,30.0,28.3,00.0,38.9,31.8,08.0,0000.0,0007.52,0002.04,0001.29
2022-10-23 08:58:00,,0805.2,5.02,0.00,30.0,28.3,00.0,38.9,31.7,08.0,0000.0,0008.05,0002.09,0001.30
2022-10-23 08:59:00,,0805.2,5.00,0.00,30.0,28.3,00.0,38.9,31.7,08.0,0000.0,0008.61,0002.06,0001.30
